LARES

Last updated on Thu Mar 05 2026 00:03:51 GMT+0000 (Coordinated Universal Time)

1 38077U 12006A 26063.56277253 -.00000008 00000+0 18863-3 0 9995 2 38077 69.4890 110.9572 0007547 155.8918 204.2463 12.54932270643940
UTC large
Height (km)
Speed (km/s)
/
Latitude / Longitude
Inclination (degrees)
Orbital Period (minutes)
Azimuth
Elevation
Range (km)
Doppler Factor

Next 0 passes for location: London (51.5072 / 0.1276)

Sorry there are no passes over London.